RYR5TP GCTS-EIDW

Flight info

Callsign RYR5TP
Flight time 3h 46m
Altitude 34000
Route BIMBO/N0442F360 DCT GALPA DCT ASMAR DCT XERES DCT ADVAT/M076F370 T290 GELPO DCT JABEX/N0439F370 DCT BIBLA DCT SUTEX SUTEX4L
Aircraft B738/M-SDE2E3FGHIRWXY/LB1

Departure

Time 2026-04-30 14:48
Airport Tenerife Sur Airport (GCTS)

Arrival

Time 2026-04-30 18:35
Airport Dublin Airport (EIDW)
Time Latitude Longitude Altitude Speed Heading
2026-04-30 14:14 28.04494 -16.57844 222 ft 0 kts 339°
2026-04-30 14:43 28.04499 -16.57846 222 ft 5 kts 339°
2026-04-30 14:44 28.04542 -16.57869 223 ft 7 kts 314°
2026-04-30 14:44 28.04531 -16.57921 225 ft 7 kts 225°
2026-04-30 14:44 28.04482 -16.57922 222 ft 9 kts 157°
2026-04-30 14:44 28.04419 -16.57903 222 ft 10 kts 192°
2026-04-30 14:45 28.04381 -16.57968 222 ft 11 kts 249°
2026-04-30 14:45 28.04352 -16.58052 222 ft 12 kts 249°
2026-04-30 14:45 28.04319 -16.58147 222 ft 14 kts 249°
2026-04-30 14:45 28.04283 -16.58250 222 ft 14 kts 248°
2026-04-30 14:46 28.04248 -16.58349 222 ft 13 kts 248°
2026-04-30 14:46 28.04214 -16.58447 223 ft 13 kts 249°
2026-04-30 14:46 28.04185 -16.58550 222 ft 15 kts 253°
2026-04-30 14:46 28.04159 -16.58628 221 ft 17 kts 249°
2026-04-30 14:47 28.04089 -16.58831 214 ft 23 kts 248°
2026-04-30 14:47 28.04020 -16.58991 210 ft 22 kts 217°
2026-04-30 14:47 28.03921 -16.58912 202 ft 22 kts 122°
2026-04-30 14:47 28.03925 -16.58742 200 ft 22 kts 68°
2026-04-30 14:48 28.03989 -16.58558 207 ft 33 kts 69°
2026-04-30 14:48 28.04171 -16.58038 194 ft 115 kts 68°
2026-04-30 14:48 28.04560 -16.56923 308 ft 177 kts 70°
2026-04-30 14:48 28.05008 -16.55629 1369 ft 177 kts 70°
2026-04-30 14:49 28.05463 -16.54321 2417 ft 187 kts 69°
2026-04-30 14:49 28.05981 -16.52828 2896 ft 220 kts 69°
2026-04-30 14:49 28.06564 -16.51155 3416 ft 241 kts 68°
2026-04-30 14:49 28.07215 -16.49286 3911 ft 264 kts 68°
2026-04-30 14:50 28.08592 -16.45328 6005 ft 276 kts 69°
2026-04-30 14:50 28.09281 -16.43261 6948 ft 284 kts 70°
2026-04-30 14:51 28.10663 -16.38979 8910 ft 296 kts 70°
2026-04-30 14:51 28.11473 -16.36805 9823 ft 305 kts 56°
2026-04-30 14:51 28.15148 -16.34383 10875 ft 339 kts 11°
2026-04-30 14:52 28.17513 -16.33787 11408 ft 354 kts
2026-04-30 14:52 28.22457 -16.33122 13151 ft 360 kts
2026-04-30 14:52 28.24972 -16.32929 14039 ft 364 kts 360°
2026-04-30 14:53 28.30088 -16.32551 15559 ft 372 kts 360°
2026-04-30 14:53 28.32686 -16.32344 16322 ft 376 kts 360°
2026-04-30 14:54 28.37964 -16.31893 17835 ft 385 kts 359°
2026-04-30 14:54 28.43365 -16.31411 19190 ft 393 kts 359°
2026-04-30 14:55 28.48858 -16.30910 20468 ft 400 kts 359°
2026-04-30 14:55 28.51653 -16.30655 21086 ft 405 kts 359°
2026-04-30 14:55 28.57316 -16.30138 22339 ft 412 kts 359°
2026-04-30 14:56 28.63086 -16.29609 23482 ft 420 kts 359°
2026-04-30 14:56 28.67971 -16.29161 24281 ft 427 kts 358°
2026-04-30 14:57 28.70937 -16.28888 24782 ft 429 kts 358°
2026-04-30 14:57 28.76926 -16.28336 25750 ft 434 kts 358°
2026-04-30 14:58 28.82979 -16.27779 26662 ft 439 kts 358°
2026-04-30 14:58 28.86037 -16.27498 27102 ft 442 kts 358°
2026-04-30 14:58 28.92209 -16.26929 27964 ft 447 kts 358°
2026-04-30 14:59 28.98450 -16.26354 28798 ft 453 kts 358°
2026-04-30 15:00 29.07962 -16.25475 29971 ft 460 kts 358°
2026-04-30 15:00 29.14328 -16.24882 30984 ft 456 kts 358°
2026-04-30 15:01 29.20568 -16.24297 32011 ft 451 kts 357°
2026-04-30 15:01 29.23688 -16.24008 32435 ft 450 kts 357°
2026-04-30 15:01 29.29926 -16.23430 33325 ft 448 kts 357°
2026-04-30 15:02 29.33033 -16.23142 33806 ft 447 kts 357°
2026-04-30 15:02 29.36130 -16.22854 34220 ft 446 kts 357°
2026-04-30 15:03 29.45345 -16.21995 35488 ft 439 kts 356°
2026-04-30 15:03 29.51423 -16.21429 36115 ft 440 kts 356°
2026-04-30 15:04 29.66655 -16.20006 36118 ft 435 kts 356°
2026-04-30 15:06 29.81764 -16.18596 36115 ft 437 kts 356°
2026-04-30 15:07 29.93899 -16.17456 36108 ft 438 kts 356°
2026-04-30 15:08 30.06065 -16.16310 36113 ft 439 kts 356°
2026-04-30 15:09 30.21226 -16.14877 36112 ft 438 kts 356°
2026-04-30 15:10 30.33330 -16.13730 36113 ft 435 kts 356°
2026-04-30 15:11 30.51392 -16.12014 36115 ft 433 kts 356°
2026-04-30 15:13 30.66398 -16.10585 36114 ft 433 kts 356°
2026-04-30 15:14 30.87407 -16.08575 36115 ft 433 kts 356°
2026-04-30 15:17 31.14413 -16.05978 36112 ft 434 kts 356°
2026-04-30 15:19 31.38483 -16.03651 36113 ft 434 kts 356°
2026-04-30 17:39 48.24381 -9.49915 36031 ft 484 kts 357°
2026-04-30 17:42 48.58153 -9.50240 36023 ft 486 kts 357°
2026-04-30 17:43 48.75081 -9.50311 36024 ft 487 kts 358°
2026-04-30 17:44 48.95441 -9.50300 36021 ft 488 kts 358°
2026-04-30 17:46 49.12242 -9.47181 36015 ft 489 kts 11°
2026-04-30 17:47 49.25638 -9.43455 36017 ft 489 kts 10°
2026-04-30 17:48 49.49103 -9.37140 36011 ft 488 kts 11°
2026-04-30 17:50 49.75788 -9.29873 36003 ft 487 kts 11°
2026-04-30 17:52 49.95767 -9.24378 36004 ft 486 kts 11°
2026-04-30 17:54 50.25672 -9.16068 36003 ft 484 kts 12°
2026-04-30 17:56 50.52194 -9.08607 36000 ft 484 kts 12°
2026-04-30 17:58 50.72039 -9.02969 36000 ft 483 kts 13°
2026-04-30 18:00 50.98406 -8.95402 35994 ft 482 kts 13°
2026-04-30 18:01 51.14635 -8.89464 35999 ft 473 kts 30°
2026-04-30 18:02 51.22774 -8.80923 36003 ft 466 kts 41°
2026-04-30 18:02 51.30667 -8.71847 36011 ft 467 kts 40°
2026-04-30 18:04 51.46419 -8.53962 36024 ft 458 kts 40°
2026-04-30 18:05 51.56624 -8.42315 34860 ft 441 kts 41°
2026-04-30 18:06 51.66442 -8.31038 33288 ft 427 kts 41°
2026-04-30 18:07 51.75921 -8.20093 31798 ft 412 kts 42°
2026-04-30 18:08 51.82820 -8.12090 30744 ft 402 kts 43°
2026-04-30 18:09 51.91773 -8.01657 29275 ft 389 kts 43°
2026-04-30 18:10 52.00414 -7.91538 27848 ft 380 kts 43°
2026-04-30 18:11 52.09174 -7.81217 26405 ft 385 kts 42°
2026-04-30 18:11 52.15567 -7.73677 25357 ft 373 kts 42°
2026-04-30 18:12 52.21772 -7.66319 24336 ft 363 kts 43°
2026-04-30 18:13 52.25847 -7.61467 23555 ft 362 kts 43°
2026-04-30 18:13 52.31198 -7.55086 22566 ft 353 kts 43°
2026-04-30 18:14 52.35786 -7.49601 21769 ft 345 kts 43°
2026-04-30 18:15 52.41535 -7.42702 20790 ft 339 kts 43°
2026-04-30 18:15 52.47151 -7.35941 19832 ft 332 kts 43°
2026-04-30 18:16 52.50844 -7.31485 19191 ft 328 kts 43°
2026-04-30 18:16 52.54497 -7.27066 18584 ft 325 kts 43°
2026-04-30 18:17 52.56326 -7.24848 18252 ft 328 kts 43°
2026-04-30 18:17 52.57565 -7.23342 18010 ft 330 kts 43°
2026-04-30 18:17 52.61676 -7.19789 17254 ft 343 kts 25°
2026-04-30 18:18 52.63921 -7.18463 16839 ft 342 kts 24°
2026-04-30 18:18 52.66167 -7.17154 16431 ft 342 kts 24°
2026-04-30 18:18 52.68399 -7.15848 16065 ft 339 kts 24°
2026-04-30 18:18 52.70610 -7.14541 15692 ft 337 kts 24°
2026-04-30 18:19 52.72807 -7.13230 15322 ft 335 kts 24°
2026-04-30 18:19 52.74991 -7.11917 14957 ft 333 kts 24°
2026-04-30 18:19 52.77168 -7.10602 14607 ft 332 kts 24°
2026-04-30 18:19 52.79335 -7.09288 14298 ft 330 kts 24°
2026-04-30 18:20 52.81483 -7.07984 13989 ft 328 kts 24°
2026-04-30 18:20 52.83618 -7.06684 13642 ft 325 kts 24°
2026-04-30 18:20 52.85718 -7.05407 13100 ft 320 kts 24°
2026-04-30 18:20 52.87809 -7.04130 12475 ft 322 kts 24°
2026-04-30 18:21 52.89915 -7.02841 12108 ft 322 kts 24°
2026-04-30 18:21 52.92016 -7.01555 11780 ft 321 kts 24°
2026-04-30 18:21 52.94109 -7.00273 11462 ft 320 kts 24°
2026-04-30 18:21 52.96192 -6.98997 11149 ft 318 kts 24°
2026-04-30 18:22 52.98263 -6.97726 10840 ft 315 kts 24°
2026-04-30 18:22 53.02318 -6.95237 10400 ft 307 kts 24°
2026-04-30 18:22 53.04308 -6.94013 10180 ft 303 kts 24°
2026-04-30 18:23 53.06277 -6.92799 9887 ft 301 kts 24°
2026-04-30 18:23 53.08238 -6.91589 9547 ft 301 kts 24°
2026-04-30 18:23 53.10162 -6.90401 9274 ft 298 kts 24°
2026-04-30 18:23 53.12102 -6.89203 8952 ft 297 kts 24°
2026-04-30 18:24 53.15951 -6.86821 8325 ft 293 kts 24°
2026-04-30 18:24 53.17858 -6.85639 7992 ft 292 kts 24°
2026-04-30 18:24 53.19755 -6.84463 7719 ft 290 kts 24°
2026-04-30 18:25 53.21640 -6.83293 7436 ft 288 kts 24°
2026-04-30 18:25 53.25267 -6.81044 7225 ft 264 kts 24°
2026-04-30 18:25 53.26939 -6.80007 7082 ft 251 kts 25°
2026-04-30 18:26 53.30173 -6.77987 6358 ft 247 kts 25°
2026-04-30 18:26 53.31786 -6.76978 5953 ft 247 kts 25°
2026-04-30 18:26 53.33392 -6.75973 5623 ft 243 kts 25°
2026-04-30 18:27 53.36341 -6.74136 5353 ft 215 kts 26°
2026-04-30 18:27 53.37737 -6.73259 5012 ft 214 kts 26°
2026-04-30 18:28 53.40495 -6.71479 4294 ft 207 kts 35°
2026-04-30 18:28 53.41459 -6.69864 3937 ft 190 kts 68°
2026-04-30 18:28 53.42791 -6.66094 3316 ft 186 kts 68°
2026-04-30 18:29 53.43440 -6.64300 3262 ft 175 kts 68°
2026-04-30 18:29 53.45092 -6.59074 2987 ft 157 kts 96°
2026-04-30 18:30 53.45138 -6.55403 2998 ft 155 kts 97°
2026-04-30 18:30 53.45042 -6.51800 2982 ft 151 kts 102°
2026-04-30 18:31 53.44952 -6.50063 2855 ft 148 kts 103°
2026-04-30 18:31 53.44760 -6.46669 2473 ft 144 kts 103°
2026-04-30 18:32 53.44576 -6.43425 2103 ft 138 kts 102°
2026-04-30 18:32 53.44484 -6.41812 1916 ft 140 kts 102°
2026-04-30 18:32 53.44298 -6.38522 1525 ft 142 kts 101°
2026-04-30 18:33 53.44200 -6.36869 1308 ft 142 kts 100°
2026-04-30 18:33 53.44012 -6.33589 895 ft 143 kts 96°
2026-04-30 18:33 53.43923 -6.31932 720 ft 144 kts 96°
2026-04-30 18:34 53.43831 -6.30256 523 ft 145 kts 94°
2026-04-30 18:34 53.43654 -6.26915 211 ft 133 kts 96°
2026-04-30 18:34 53.43583 -6.25652 208 ft 71 kts 95°
2026-04-30 18:35 53.43491 -6.25120 214 ft 33 kts 121°
2026-04-30 18:35 53.43381 -6.24805 210 ft 21 kts 117°
2026-04-30 18:35 53.43353 -6.24598 210 ft 18 kts 93°
2026-04-30 18:36 53.43258 -6.24410 214 ft 8 kts 186°
2026-04-30 18:36 53.43201 -6.24440 216 ft 9 kts 224°
2026-04-30 18:36 53.43150 -6.24643 210 ft 10 kts 275°
2026-04-30 18:37 53.43179 -6.24755 214 ft 11 kts 297°
2026-04-30 18:37 53.43189 -6.24880 210 ft 11 kts 271°
2026-04-30 18:37 53.43184 -6.24949 216 ft 6 kts 232°
2026-04-30 18:37 53.43145 -6.24954 210 ft 6 kts 179°
2026-04-30 18:38 53.43112 -6.24959 217 ft 0 kts 186°
2026-04-30 18:38 53.43108 -6.24960 217 ft 0 kts 185°